Retour au catalogue

STARLINK-30169

ActifCommunicationsVLEO
NORAD 57499·PAYLOAD·🇺🇸 United States

Lancé Aug 7, 2023 depuis Cape Canaveral Space Force Station

Loading…

Prochains Passages (prochaines 24 heures)

TLE

FraisSource: CelesTrak SupGP

Époque: Sep 15, 2026, 01:50 UTC

1 57499C 23113E   26258.07687500 -.00060528  00000+0 -21924-2 0  2580
2 57499  43.0040  12.3305 0001926 266.7674 202.5340 15.27607321    18

Suivez STARLINK-30169 en temps réel avec AllMySat

Download on the App Store